#timestamp,LO_Frequency,Hit,StdDev 
1599476415.4,286046999.0,N
1599476435.3,286046998.4,P
1599476455.1,286046999.3,N
1599476475.9,286046996.9,Y
1599476495.7,286046998.4,P
1599476515.5,286046998.1,P
1599476535.4,286046998.3,P
1599476555.2,286047001.0,N
1599476575.0,286046998.2,N
1599476575.9,286046998.2,N
1599476595.8,286047002.0,N
1599476615.6,286046998.5,N
1599476635.5,286047000.5,N
1599476655.3,286046998.6,N
1599476675.1,286046998.5,N
1599476695.9,286046998.7,N
1599476715.7,286046998.6,N
1599476735.5,286046999.5,N
1599476755.4,286046997.7,N
1599476775.2,286046997.0,N
1599476795.1,286046999.4,N
1599476796.0,286046999.4,N
1599476815.8,286046998.4,N
1599476835.6,286046999.4,N
1599476855.5,286046997.0,N
1599476875.3,286046998.9,N
1599476895.1,286046998.7,N
1599476915.9,286046998.7,N
1599476935.7,286046999.5,N
1599476955.6,286046996.5,Y
1599476975.4,286046998.8,P
1599476995.3,286046998.7,P
1599477015.1,286046998.3,P
1599477016.0,286046998.3,Y
1599477035.8,286047000.7,P
1599477055.7,286047000.0,N
1599477075.5,286047001.2,N
1599477095.3,286047000.5,N
1599477115.2,286046998.1,N
1599477135.0,286046998.1,N
1599477135.9,286046998.1,N
1599477155.8,286047000.6,N
1599477175.6,286046998.1,N
1599477195.4,286047000.5,N
1599477215.3,286047002.4,N
1599477235.1,286047001.6,N
1599477255.9,286047000.2,N
1599477275.7,286047002.3,N
1599477295.5,286047002.8,N
1599477315.4,286047002.4,N
1599477335.2,286047000.2,N
1599477355.0,286047000.9,N
1599477355.9,286047000.9,N
1599477375.8,286047002.3,N
1599477395.6,286047002.3,N
1599477415.5,286047000.2,N
1599477435.3,286047002.5,N
1599477455.1,286047002.4,N
1599477475.9,286047001.6,N
1599477495.7,286047002.5,N
1599477515.5,286047001.5,N
1599477535.4,286047001.5,N
1599477555.2,286047001.5,N
1599477575.0,286047001.8,N
1599477576.0,286047001.8,N
1599477595.8,286047004.2,N
1599477615.6,286047004.2,N
1599477635.5,286047001.7,N
1599477655.3,286047004.4,N
1599477675.1,286047002.0,N
1599477695.9,286047004.3,N
1599477715.7,286047003.9,N
1599477735.6,286047001.8,N
1599477755.4,286047001.4,N
1599477775.2,286047001.4,N
1599477795.1,286047001.3,N
1599477796.0,286047001.3,N
1599477815.8,286047002.0,N
1599477835.6,286047002.3,N
1599477855.5,286047002.2,N
1599477875.3,286047000.3,N
1599477895.2,286047000.1,N
1599477915.9,286047000.1,N
1599477935.7,286047000.0,N
1599477955.6,286047000.7,N
1599477975.4,286047000.0,N
1599477995.3,286047001.2,N
1599478015.1,286047000.5,N
1599478016.0,286047000.5,N
1599478035.8,286046998.3,N
1599478055.7,286046998.3,N
1599478075.5,286047001.2,N
1599478095.3,286046998.6,N
1599478115.2,286046998.4,N
1599478135.0,286046996.6,N
1599478135.9,286046996.6,N
1599478155.8,286046999.2,N
1599478175.6,286046998.9,N
1599478195.5,286046999.0,N
1599478215.3,286046999.1,N
1599478235.1,286046996.6,N
1599478255.9,286046999.2,N
1599478275.7,286046996.6,N
1599478295.5,286046996.5,N
1599478315.4,286046996.5,N
1599478335.2,286046999.5,N
1599478355.1,286046999.2,N
1599478356.0,286046999.2,N
1599478375.8,286046999.4,N
1599478395.6,286046999.2,N
1599478415.5,286046999.6,N
1599478435.3,286046997.0,N
1599478455.2,286046997.4,N
1599478475.9,286046997.7,N
1599478495.7,286046995.0,Y
1599478515.6,286046999.5,P
1599478535.4,286046996.7,P
1599478555.3,286046996.5,P
1599478575.1,286046997.4,N
1599478576.0,286046997.4,N
1599478595.8,286046995.0,Y
1599478615.7,286047000.9,P
1599478635.5,286047001.0,N
1599478655.4,286046998.8,N
1599478675.2,286046998.2,N
1599478695.0,286046998.8,N
1599478695.9,286046998.8,N
1599478715.8,286046998.4,N
1599478735.6,286046998.2,N
1599478755.5,286046998.2,N
1599478775.3,286046998.4,N
1599478795.1,286046999.6,N
1599478815.9,286046998.1,N
1599478835.7,286047000.8,N
1599478855.6,286046998.6,N
1599478875.4,286046998.4,N
1599478895.2,286046998.2,N
1599478915.1,286046998.4,N
1599478916.0,286046998.4,N
1599478935.8,286047000.6,N
1599478955.7,286046998.2,N
1599478975.5,286047000.8,N
1599478995.3,286047001.1,N
1599479015.2,286046999.3,N
1599479035.9,286047001.0,N
1599479055.7,286047000.6,N
1599479075.6,286047000.4,N
1599479095.4,286047000.3,N
1599479115.3,286046998.2,N
1599479135.1,286046999.0,N
1599479136.0,286046999.0,N
1599479155.8,286046998.4,N
1599479175.7,286046999.3,N
1599479195.5,286046998.5,N
1599479215.3,286046998.6,N
1599479235.2,286047001.1,N
1599479255.0,286047001.1,N
1599479255.9,286047001.1,N
1599479275.8,286047000.6,N
1599479295.6,286047000.3,N
1599479315.4,286047000.3,N
1599479335.3,286047002.8,N
1599479355.1,286047002.8,N
1599479375.8,286047000.3,N
1599479395.7,286047002.8,N
1599479415.5,286046999.8,N
1599479435.4,286047001.0,N
1599479455.2,286047001.1,N
1599479475.0,286046998.8,N
1599479475.9,286046998.8,N
1599479495.8,286047001.2,N
1599479515.6,286047000.5,N
1599479535.4,286047002.7,N
1599479555.3,286047000.6,N
1599479575.1,286046999.8,N
1599479595.9,286047002.4,N
1599479615.7,286047001.6,N
1599479635.5,286047004.3,Y
1599479655.4,286047002.3,P
1599479675.2,286047000.2,N
1599479695.1,286046999.7,N
1599479696.0,286046999.7,N
1599479715.8,286047000.1,N
1599479735.6,286047000.2,N
1599479755.5,286046999.9,N
1599479775.3,286047001.0,N
1599479795.1,286047000.4,N
1599479815.9,286046999.8,N
1599479835.7,286046999.8,N
1599479855.6,286046999.9,N
1599479875.4,286046999.8,N
1599479895.2,286047000.6,N
1599479915.1,286047000.4,N
1599479916.0,286047000.4,N
1599479935.8,286047000.8,N
1599479955.6,286047000.9,N
1599479975.5,286047000.9,N
1599479995.3,286047000.9,N
